Minneapolis, MN

5:56 AM CDT on July 26, 2016 (GMT -0500)
Minneapolis-Saint Paul International

Weather History for KMSP - March, 2013

Change the Weather History Date:

Tuesday, March 26, 2013

  Actual Average Record
Temperature  
Mean Temperature 33 °F 37 °F  
Max Temperature 39 °F 47 °F 81 °F (2007)
Min Temperature 27 °F 28 °F -10 °F (1996)
Degree Days  
Heating Degree Days 32 28  
Month to date heating degree days 1029 868  
Since 1 July heating degree days 6563 6658  
Cooling Degree Days 0 0  
Month to date cooling degree days 0 0  
Year to date cooling degree days 0 0  
Moisture  
Dew Point 20 °F    
Average Humidity 62    
Maximum Humidity 75    
Minimum Humidity 48    
Precipitation  
Precipitation 0.00 in 0.07 in 1.02 in (1921)
Month to date precipitation 1.85 1.54  
Year to date precipitation 4.04 3.21  
Snow  
Snow 0.00 in 0.20 in 8.50 in (1936)
Month to date snowfall 13.8 9.3  
Since 1 July snowfall 49.3 51.0  
Snow Depth 5.00 in    
Sea Level Pressure  
Sea Level Pressure 30.29 in    
Wind  
Wind Speed 6 mph (West)    
Max Wind Speed 10 mph    
Max Gust Speed -    
Visibility 10 miles    
Events      
T = Trace of Precipitation, MM = Missing Value Source: NWS Daily Summary

Daily Weather History Graph

Daily Weather History Graph

Search for Another Location

Airport or City:

Trip Planner

Search our weather history database for the weather conditions in past years. The results will help you decide how hot, cold, wet, or windy it might be!

Date:

Astronomy

Mar. 26, 2013 Rise Set
Actual Time 7:04 AM CDT 7:33 PM CDT
Civil Twilight 6:34 AM CDT 8:02 PM CDT
Nautical Twilight 6:00 AM CDT 8:37 PM CDT
Astronomical Twilight 5:24 AM CDT 9:13 PM CDT
Moon 7:11 PM CDT 6:21 AM CDT
Length of Visible Light 13h 27m
Length of Day
12h 29m
Waxing Gibbous, 99% of the Moon is Illuminated
Mar 26
Waxing Gibbous
Mar 27
Full
Apr 2
Last Quarter
Apr 10
New
Apr 18
First Quarter

Hourly Weather History & Observations

Time (CDT) Temp. Windchill Dew Point Humidity Pressure Visibility Wind Dir Wind Speed Gust Speed Precip Events Conditions
12:53 AM 30.9 °F 22.8 °F 21.0 °F 67% 30.25 in 10.0 mi NW 9.2 mph - N/A   Overcast
1:53 AM 30.0 °F 22.4 °F 21.9 °F 72% 30.25 in 10.0 mi WNW 8.1 mph - N/A   Mostly Cloudy
2:53 AM 28.9 °F 22.8 °F 21.0 °F 72% 30.25 in 10.0 mi WNW 5.8 mph - N/A   Overcast
3:53 AM 28.9 °F 22.8 °F 21.0 °F 72% 30.26 in 10.0 mi WNW 5.8 mph - N/A   Overcast
4:53 AM 28.0 °F 22.8 °F 21.0 °F 75% 30.26 in 10.0 mi NW 4.6 mph - N/A   Overcast
5:53 AM 28.0 °F 21.7 °F 19.9 °F 72% 30.27 in 10.0 mi WNW 5.8 mph - N/A   Overcast
6:53 AM 27.0 °F 20.5 °F 19.9 °F 75% 30.28 in 10.0 mi WNW 5.8 mph - N/A   Overcast
7:53 AM 27.0 °F 19.5 °F 19.9 °F 75% 30.30 in 10.0 mi WNW 6.9 mph - N/A   Overcast
8:53 AM 28.0 °F 21.7 °F 19.9 °F 72% 30.31 in 10.0 mi West 5.8 mph - N/A   Overcast
9:53 AM 30.0 °F 26.5 °F 19.9 °F 66% 30.32 in 10.0 mi WNW 3.5 mph - N/A   Overcast
10:53 AM 32.0 °F - 21.0 °F 64% 30.32 in 10.0 mi Calm Calm - N/A   Mostly Cloudy
11:53 AM 34.0 °F - 21.0 °F 59% 30.32 in 10.0 mi Calm Calm - N/A   Mostly Cloudy
12:53 PM 37.4 °F 32.1 °F 21.2 °F 52% 30.27 in 10.0 mi WSW 6.9 mph - N/A   Mostly Cloudy
1:53 PM 37.9 °F 32.7 °F 19.0 °F 47% 30.30 in 10.0 mi WNW 6.9 mph - N/A   Mostly Cloudy
2:53 PM 37.9 °F 32.1 °F 19.9 °F 48% 30.29 in 10.0 mi WSW 8.1 mph - N/A   Mostly Cloudy
3:53 PM 37.0 °F 31.0 °F 21.0 °F 52% 30.29 in 10.0 mi SW 8.1 mph - N/A   Mostly Cloudy
4:53 PM 37.9 °F 30.9 °F 19.9 °F 48% 30.28 in 10.0 mi West 10.4 mph - N/A   Mostly Cloudy
5:53 PM 37.9 °F 32.7 °F 21.0 °F 51% 30.29 in 10.0 mi WNW 6.9 mph - N/A   Mostly Cloudy
6:53 PM 37.0 °F 32.4 °F 19.9 °F 50% 30.29 in 10.0 mi West 5.8 mph - N/A   Scattered Clouds
7:53 PM 36.0 °F 29.6 °F 19.9 °F 52% 30.30 in 10.0 mi West 8.1 mph - N/A   Scattered Clouds
8:53 PM 35.1 °F 31.0 °F 19.9 °F 54% 30.31 in 10.0 mi West 4.6 mph - N/A   Scattered Clouds
9:53 PM 33.1 °F 28.7 °F 21.0 °F 61% 30.32 in 10.0 mi WSW 4.6 mph - N/A   Partly Cloudy
10:53 PM 30.9 °F - 21.0 °F 67% 30.32 in 10.0 mi Calm Calm - N/A   Partly Cloudy
11:53 PM 30.0 °F 26.5 °F 19.9 °F 66% 30.33 in 10.0 mi WSW 3.5 mph - N/A   Scattered Clouds